CW6391 Weather Reports


Display with metric or nautical units.
time (UTC)temp
F
wind
direction
speed
MPH
gust
MPH
rain 1hr
in
rain 24hr
in
rain mn
in
humidity
%
barometer
mb
20260507180158 53 244 1.0 5.0 0.00 0.07 0.00 75 1013.9
20260507175701 53 265 1.0 4.0 0.00 0.07 0.00 74 1013.9
20260507175158 53 250 1.0 5.0 0.00 0.07 0.00 75 1013.9
20260507174701 53 238 2.0 6.0 0.00 0.07 0.00 75 1013.9
20260507174201 53 271 2.0 6.0 0.00 0.07 0.00 74 1013.9
20260507173701 53 244 0.0 4.0 0.00 0.07 0.00 76 1013.9
20260507173204 53 292 2.0 4.0 0.00 0.07 0.00 75 1013.9
20260507172701 53 283 1.0 3.0 0.00 0.07 0.00 76 1013.9
20260507172204 53 314 1.0 4.0 0.00 0.07 0.00 76 1013.9
20260507171701 53 326 2.0 3.0 0.00 0.07 0.00 74 1013.9
20260507171158 53 283 1.0 5.0 0.00 0.07 0.00 74 1013.9
20260507170701 53 274 1.0 5.0 0.00 0.08 0.00 74 1013.9
20260507170201 53 254 2.0 6.0 0.00 0.08 0.00 73 1013.9
20260507165658 53 270 2.0 6.0 0.00 0.09 0.00 73 1013.9
20260507165158 53 251 2.0 5.0 0.00 0.09 0.00 73 1013.9
20260507164658 53 264 1.0 5.0 0.00 0.10 0.00 73 1013.9
20260507164204 53 238 2.0 8.0 0.00 0.12 0.00 73 1013.5
20260507163701 53 268 4.0 8.0 0.00 0.13 0.00 72 1013.5
20260507163207 53 256 2.0 7.0 0.00 0.13 0.00 72 1013.5
20260507162658 53 249 3.0 6.0 0.00 0.14 0.00 73 1013.5
20260507162201 53 251 4.0 6.0 0.00 0.15 0.00 72 1013.5
20260507161658 53 261 1.0 4.0 0.00 0.17 0.00 74 1013.5
20260507161201 53 244 2.0 6.0 0.00 0.18 0.00 73 1013.5
20260507160701 53 298 1.0 7.0 0.00 0.19 0.00 73 1013.5
20260507160201 53 247 3.0 9.0 0.00 0.19 0.00 72 1013.5
20260507155658 53 251 1.0 7.0 0.00 0.20 0.00 73 1013.5
20260507155201 53 243 4.0 7.0 0.00 0.20 0.00 71 1013.5
20260507154701 53 260 2.0 7.0 0.00 0.20 0.00 72 1013.5
20260507154158 53 248 1.0 5.0 0.00 0.20 0.00 72 1013.5
20260507153658 53 248 1.0 5.0 0.00 0.20 0.00 72 1013.5
20260507153201 54 249 2.0 8.0 0.00 0.20 0.00 71 1013.5
20260507152701 54 246 2.0 7.0 0.00 0.20 0.00 70 1013.5
20260507152158 54 296 1.0 7.0 0.00 0.20 0.00 69 1013.2
20260507151701 54 265 2.0 9.0 0.00 0.20 0.00 69 1013.2
20260507151201 54 270 4.0 9.0 0.00 0.20 0.00 69 1013.2
20260507150658 54 233 3.0 8.0 0.00 0.20 0.00 68 1013.2
20260507150201 54 289 2.0 7.0 0.00 0.20 0.00 67 1013.2
20260507145701 55 263 3.0 7.0 0.00 0.20 0.00 67 1013.2
20260507145158 55 264 2.0 6.0 0.00 0.20 0.00 68 1013.2
20260507144704 55 234 1.0 5.0 0.00 0.20 0.00 68 1013.2
20260507144201 55 277 2.0 10.0 0.00 0.20 0.00 68 1013.2
20260507143658 55 241 3.0 12.0 0.00 0.20 0.00 68 1013.2
20260507143201 55 247 4.0 10.0 0.00 0.20 0.00 68 1013.2
20260507142701 55 272 1.0 8.0 0.00 0.20 0.00 70 1013.2
20260507142201 54 304 5.0 10.0 0.00 0.20 0.00 70 1013.2
20260507141704 54 237 5.0 10.0 0.00 0.20 0.00 70 1013.2
20260507141158 54 290 3.0 8.0 0.00 0.20 0.00 71 1013.2
20260507140658 54 250 3.0 11.0 0.00 0.20 0.00 72 1013.2
20260507140201 54 240 4.0 11.0 0.00 0.20 0.00 71 1013.2
20260507135658 54 269 4.0 9.0 0.00 0.20 0.00 70 1013.2
20260507135158 55 256 3.0 11.0 0.00 0.20 0.00 70 1013.2
20260507134658 55 273 3.0 7.0 0.00 0.20 0.00 70 1013.2
20260507134158 55 267 2.0 8.0 0.00 0.20 0.00 71 1013.2
20260507133701 55 282 2.0 7.0 0.00 0.20 0.00 71 1013.2
20260507133201 55 286 1.0 4.0 0.00 0.20 0.00 73 1013.2
20260507132658 54 224 1.0 5.0 0.00 0.20 0.00 74 1013.2
20260507132204 54 260 2.0 6.0 0.00 0.20 0.00 75 1012.9
20260507131701 53 272 2.0 4.0 0.00 0.20 0.00 77 1013.2
20260507131158 53 303 1.0 6.0 0.00 0.20 0.00 77 1012.9
20260507130658 53 292 2.0 9.0 0.00 0.20 0.00 77 1012.9
20260507130158 53 288 3.0 10.0 0.00 0.20 0.00 77 1012.9
20260507125701 53 275 2.0 10.0 0.00 0.20 0.00 78 1012.9
20260507125158 53 253 1.0 7.0 0.00 0.20 0.00 80 1012.9
20260507124701 52 310 1.0 7.0 0.00 0.20 0.00 80 1012.9
20260507124201 52 291 4.0 8.0 0.00 0.20 0.00 79 1012.5
20260507123701 53 253 3.0 7.0 0.00 0.20 0.00 78 1012.5
20260507123158 53 270 3.0 8.0 0.00 0.20 0.00 77 1012.5
20260507122701 54 258 3.0 9.0 0.00 0.20 0.00 74 1012.5
20260507122201 55 253 3.0 8.0 0.00 0.20 0.00 71 1012.5
20260507121704 55 248 2.0 8.0 0.00 0.20 0.00 70 1012.1
20260507121207 55 278 3.0 8.0 0.00 0.20 0.00 69 1012.1
20260507120658 55 237 3.0 10.0 0.00 0.20 0.00 68 1012.1
20260507120158 55 250 1.0 11.0 0.00 0.20 0.00 69 1012.1
20260507115658 56 267 5.0 11.0 0.00 0.20 0.00 67 1012.1
20260507115201 56 270 2.0 10.0 0.00 0.20 0.00 70 1012.1
20260507114702 55 254 4.0 8.0 0.00 0.20 0.00 70 1012.1
20260507114158 55 297 3.0 8.0 0.00 0.20 0.00 71 1012.1
20260507113704 54 304 2.0 7.0 0.00 0.20 0.00 74 1012.1
20260507113201 53 290 1.0 8.0 0.00 0.20 0.00 76 1012.1
20260507112704 53 299 2.0 9.0 0.00 0.20 0.00 76 1012.1
20260507112158 53 283 3.0 8.0 0.00 0.20 0.00 77 1012.1
20260507111701 53 260 4.0 8.0 0.00 0.20 0.00 77 1011.8
20260507111158 53 292 4.0 9.0 0.00 0.20 0.00 76 1011.8
20260507110658 54 303 3.0 8.0 0.00 0.20 0.00 75 1011.8
20260507110201 55 281 3.0 9.0 0.00 0.20 0.00 75 1011.8
20260507105701 54 278 1.0 9.0 0.00 0.20 0.00 75 1011.8
20260507105158 54 288 5.0 9.0 0.00 0.20 0.00 74 1011.8
20260507104701 53 306 2.0 8.0 0.00 0.20 0.00 78 1011.8
20260507104158 53 231 2.0 8.0 0.00 0.20 0.00 78 1011.8
20260507103658 53 258 2.0 8.0 0.00 0.20 0.00 78 1011.8
20260507103158 53 284 2.0 9.0 0.00 0.20 0.00 80 1011.8
20260507102658 53 239 2.0 10.0 0.00 0.20 0.00 80 1011.8
20260507102158 53 274 3.0 10.0 0.00 0.20 0.00 81 1011.8
20260507101658 53 258 3.0 8.0 0.00 0.20 0.00 81 1011.4
20260507101158 53 275 3.0 6.0 0.00 0.20 0.00 83 1011.4
20260507100701 52 285 2.0 7.0 0.00 0.20 0.00 83 1011.4
20260507100201 53 251 1.0 7.0 0.00 0.20 0.00 84 1011.4
20260507095658 53 225 3.0 7.0 0.00 0.20 0.00 83 1011.4
20260507095201 53 226 1.0 7.0 0.00 0.20 0.00 85 1011.4
20260507094701 53 217 0.0 6.0 0.00 0.20 0.00 86 1011.4
20260507094201 53 250 0.0 4.0 0.01 0.20 0.00 86 1011.4
20260507093658 53 208 2.0 5.0 0.01 0.20 0.00 85 1011.4
20260507093158 53 241 0.0 5.0 0.01 0.20 0.00 86 1011.4
20260507092701 52 233 2.0 5.0 0.01 0.20 0.00 85 1011.4
20260507092201 52 206 1.0 7.0 0.01 0.20 0.00 85 1011.1
20260507091701 52 220 3.0 7.0 0.01 0.20 0.00 85 1011.1
20260507091201 52 229 2.0 6.0 0.00 0.20 0.00 85 1011.1
20260507090658 52 237 3.0 9.0 0.00 0.20 0.00 84 1011.1
20260507090158 52 232 3.0 9.0 0.00 0.20 0.00 84 1011.1
20260507085658 52 261 1.0 6.0 0.00 0.20 0.00 85 1011.1
20260507085158 52 238 1.0 6.0 0.00 0.20 0.00 85 1011.1
20260507084704 52 226 1.0 8.0 0.00 0.19 0.00 85 1010.8
20260507084158 53 259 1.0 5.0 0.00 0.19 0.00 85 1010.8
20260507083704 53 284 1.0 4.0 0.00 0.19 0.00 85 1010.8
20260507083201 53 249 2.0 3.0 0.00 0.19 0.00 84 1010.8
20260507082704 53 254 1.0 6.0 0.00 0.19 0.00 83 1010.4
20260507082204 53 250 2.0 5.0 0.00 0.19 0.00 82 1010.4
20260507081658 53 266 2.0 7.0 0.00 0.19 0.00 81 1010.4
20260507081201 53 177 1.0 6.0 0.00 0.19 0.00 81 1010.4
20260507080658 53 236 3.0 6.0 0.00 0.19 0.00 80 1010.4
20260507080201 53 260 1.0 5.0 0.00 0.19 0.00 80 1010.4
20260507075658 53 198 1.0 7.0 0.00 0.19 0.00 80 1010.4
20260507075201 53 238 2.0 5.0 0.00 0.19 0.00 79 1010.0
20260507074658 53 253 1.0 6.0 0.00 0.19 0.00 79 1010.0
20260507074201 53 267 3.0 6.0 0.00 0.19 0.00 79 1010.0
20260507073658 53 269 2.0 7.0 0.00 0.19 0.00 79 1010.0
20260507073158 53 246 1.0 5.0 0.00 0.19 0.00 80 1010.0
20260507072658 53 232 3.0 6.0 0.00 0.19 0.00 80 1010.0
20260507072158 53 250 3.0 7.0 0.00 0.19 0.00 80 1009.7
20260507071658 53 239 2.0 6.0 0.00 0.19 0.00 81 1009.7
20260507071201 53 248 2.0 8.0 0.00 0.19 0.00 81 1009.7
20260507070701 53 248 2.0 6.0 0.00 0.19 0.00 82 1009.7
20260507070201 52 248 2.0 6.0 0.00 0.19 0.00 81 1009.7
20260507065658 52 231 1.0 6.0 0.00 0.19 0.00 83 1009.7
20260507065201 52 194 3.0 7.0 0.00 0.19 0.00 83 1009.7
20260507064701 52 255 4.0 8.0 0.00 0.19 0.00 82 1009.7
20260507064158 52 225 3.0 8.0 0.00 0.19 0.00 83 1009.7
20260507063658 52 270 1.0 4.0 0.00 0.19 0.00 83 1009.7
20260507063158 52 325 2.0 3.0 0.00 0.19 0.00 84 1009.7
20260507062701 52 227 1.0 7.0 0.00 0.19 0.00 84 1009.7
20260507062158 51 207 2.0 8.0 0.00 0.19 0.00 85 1009.3
20260507061658 51 190 5.0 8.0 0.00 0.19 0.00 85 1009.3
20260507061201 51 228 0.0 6.0 0.00 0.19 0.00 86 1009.3
20260507060701 51 177 3.0 7.0 0.00 0.19 0.00 86 1009.3
20260507060207 51 180 3.0 9.0 0.00 0.19 0.00 86 1009.0
20260507055658 51 206 1.0 6.0 0.00 0.19 0.00 87 1009.0
20260507055158 51 282 1.0 4.0 0.00 0.19 0.00 87 1009.0
20260507054701 51 264 1.0 5.0 0.00 0.19 0.00 87 1009.0
20260507054201 51 160 2.0 5.0 0.00 0.19 0.00 86 1009.0
20260507053658 51 159 1.0 5.0 0.00 0.19 0.00 86 1009.0
20260507053158 51 258 1.0 7.0 0.00 0.19 0.00 86 1009.0
20260507052701 51 237 1.0 5.0 0.00 0.19 0.00 86 1009.0
20260507052158 51 219 2.0 6.0 0.00 0.19 0.00 85 1008.7
20260507051658 51 215 0.0 6.0 0.00 0.19 0.00 85 1008.7
20260507051201 51 196 3.0 6.0 0.00 0.19 0.00 84 1008.7
20260507050701 51 213 1.0 3.0 0.00 0.19 0.00 85 1008.7
20260507050201 51 264 0.0 3.0 0.00 0.19 0.00 85 1008.7
20260507045701 51 282 1.0 3.0 0.00 0.19 0.00 85 1008.7
20260507045201 51 301 2.0 4.0 0.00 0.19 0.00 85 1008.7
20260507044658 51 326 1.0 3.0 0.00 0.19 0.00 85 1008.7
20260507044202 51 257 1.0 4.0 0.00 0.19 0.00 85 1008.7
20260507043658 51 179 2.0 6.0 0.00 0.19 0.00 85 1008.3
20260507043201 51 226 1.0 5.0 0.00 0.19 0.00 85 1008.3
20260507042658 51 185 3.0 8.0 0.00 0.19 0.00 84 1008.3
20260507042158 51 237 1.0 5.0 0.00 0.19 0.00 85 1008.3
20260507041658 51 314 1.0 4.0 0.00 0.19 0.00 85 1008.3
20260507041158 51 208 2.0 7.0 0.00 0.19 0.00 85 1007.9
20260507040658 51 239 0.0 7.0 0.00 0.19 0.00 85 1007.9
20260507040158 51 215 1.0 6.0 0.00 0.19 0.00 84 1007.9
20260507035658 51 270 2.0 6.0 0.00 0.19 0.00 84 1007.9
20260507035158 51 232 2.0 8.0 0.00 0.19 0.00 84 1007.9
20260507034658 51 250 2.0 4.0 0.00 0.19 0.00 85 1007.9
20260507034201 51 243 1.0 5.0 0.00 0.19 0.00 85 1007.9
20260507033658 51 232 2.0 7.0 0.00 0.19 0.00 84 1007.9
20260507033201 51 237 2.0 6.0 0.00 0.19 0.00 84 1007.9
20260507032701 51 245 2.0 7.0 0.00 0.19 0.00 84 1007.9
20260507032201 51 233 2.0 6.0 0.00 0.19 0.00 85 1007.9
20260507031658 51 259 1.0 6.0 0.00 0.19 0.00 85 1007.9
20260507031158 51 284 1.0 5.0 0.00 0.19 0.00 86 1007.9
20260507030658 51 241 1.0 7.0 0.00 0.19 0.00 86 1007.6
20260507030158 51 285 2.0 5.0 0.00 0.19 0.00 86 1007.6
20260507025701 51 251 1.0 7.0 0.00 0.19 0.00 86 1007.6
20260507025204 51 205 1.0 9.0 0.00 0.19 0.00 87 1007.6
20260507024701 52 215 2.0 4.0 0.00 0.19 0.00 87 1007.6
20260507024158 52 259 1.0 5.0 0.00 0.19 0.00 87 1007.6
20260507023701 52 216 1.0 2.0 0.00 0.19 0.00 87 1007.6
20260507023158 52 239 1.0 3.0 0.00 0.19 0.00 87 1007.6
20260507022658 52 223 0.0 4.0 0.00 0.19 0.00 87 1007.6
20260507022201 52 200 1.0 5.0 0.00 0.19 0.00 87 1007.6
20260507021658 52 232 2.0 5.0 0.00 0.19 0.00 87 1007.6
20260507021158 52 260 2.0 6.0 0.00 0.19 0.00 87 1007.6
20260507020658 52 270 2.0 6.0 0.00 0.19 0.00 87 1007.6
20260507020158 52 255 1.0 7.0 0.00 0.19 0.00 87 1007.6
20260507015701 53 282 2.0 4.0 0.00 0.19 0.00 87 1007.6
20260507015201 53 265 1.0 5.0 0.00 0.19 0.00 87 1007.6
20260507014658 53 246 2.0 7.0 0.00 0.19 0.00 87 1007.6
20260507014158 53 254 2.0 6.0 0.00 0.19 0.00 86 1007.6
20260507013658 53 246 1.0 7.0 0.00 0.19 0.00 86 1007.2
20260507013158 53 299 1.0 7.0 0.00 0.19 0.00 86 1007.2
20260507012704 53 251 0.0 5.0 0.00 0.19 0.00 86 1007.2
20260507012201 53 241 2.0 9.0 0.00 0.19 0.00 86 1007.2
20260507011658 53 252 3.0 8.0 0.00 0.19 0.00 86 1007.2
20260507010658 53 262 2.0 6.0 0.01 0.19 0.00 87 1007.2
20260507010158 53 249 2.0 7.0 0.01 0.19 0.00 87 1007.2
20260507005701 53 263 4.0 7.0 0.01 0.19 0.00 87 1007.2
20260507005204 53 267 1.0 4.0 0.01 0.19 0.00 87 1007.2
20260507004658 53 215 1.0 6.0 0.01 0.19 0.00 87 1007.2
20260507004201 53 260 2.0 6.0 0.02 0.19 0.00 87 1007.2
20260507003658 53 252 1.0 5.0 0.02 0.19 0.00 87 1007.2
20260507003207 53 222 1.0 4.0 0.02 0.19 0.00 87 1007.2
20260507002658 53 313 1.0 4.0 0.02 0.19 0.00 87 1007.2
20260507002158 53 266 1.0 5.0 0.01 0.18 0.00 87 1007.2
20260507001658 54 237 1.0 5.0 0.01 0.18 0.00 87 1007.2
20260507001204 54 196 0.0 5.0 0.01 0.18 0.00 86 1007.2
20260507000658 54 251 2.0 6.0 0.00 0.18 0.00 86 1007.2
20260507000205 54 249 1.0 6.0 0.00 0.18 0.00 86 1006.9
20260506235658 54 247 2.0 6.0 0.00 0.18 0.00 85 1007.2
20260506235204 54 246 1.0 5.0 0.00 0.17 0.00 85 1007.2
20260506234658 54 272 1.0 5.0 0.00 0.17 0.00 85 1007.2
20260506234201 54 205 2.0 5.0 0.00 0.17 0.00 84 1007.2
20260506233658 54 188 2.0 5.0 0.00 0.17 0.00 84 1007.2
20260506233204 54 232 1.0 2.0 0.00 0.17 0.00 84 1007.2
20260506232658 54 251 0.0 5.0 0.00 0.17 0.00 84 1006.9
20260506232204 54 254 1.0 5.0 0.00 0.17 0.00 84 1006.9
20260506231701 54 268 1.0 4.0 0.00 0.17 0.00 84 1006.9
20260506231158 55 197 1.0 3.0 0.00 0.17 0.00 84 1006.9
20260506230704 55 255 0.0 5.0 0.00 0.17 0.00 84 1006.9
20260506230204 55 243 1.0 5.0 0.00 0.17 0.00 84 1006.9
20260506225701 55 229 1.0 4.0 0.00 0.17 0.00 84 1006.9
20260506225201 55 258 1.0 4.0 0.00 0.17 0.00 84 1006.9
20260506224658 55 263 1.0 4.0 0.00 0.17 0.00 85 1006.9
20260506224204 55 251 1.0 6.0 0.00 0.17 0.00 85 1006.9
20260506223704 55 186 1.0 4.0 0.00 0.17 0.00 85 1006.9
20260506223204 55 238 1.0 6.0 0.00 0.17 0.00 85 1006.6
20260506222658 55 251 0.0 5.0 0.00 0.17 0.00 85 1006.6
20260506222201 55 236 1.0 5.0 0.00 0.17 0.00 86 1006.6
20260506221704 55 190 2.0 5.0 0.00 0.17 0.00 85 1006.9
20260506221207 55 234 0.0 3.0 0.00 0.17 0.00 86 1006.9
20260506220704 55 257 0.0 4.0 0.00 0.17 0.00 85 1006.6
20260506220201 55 184 2.0 5.0 0.00 0.17 0.00 85 1006.6
20260506215701 55 174 1.0 8.0 0.00 0.17 0.00 85 1006.6
20260506215158 55 282 1.0 6.0 0.00 0.17 0.00 85 1006.6
20260506214658 55 215 1.0 2.0 0.00 0.17 0.00 85 1006.6
20260506214158 55 234 1.0 4.0 0.00 0.17 0.00 85 1006.6
20260506213701 55 200 2.0 4.0 0.00 0.17 0.00 85 1006.6
20260506213201 55 128 1.0 3.0 0.00 0.17 0.00 85 1006.6
20260506212704 55 164 1.0 3.0 0.00 0.17 0.00 85 1006.9
20260506212158 55 185 2.0 3.0 0.00 0.17 0.00 85 1006.6
20260506211701 55 155 1.0 3.0 0.01 0.17 0.00 85 1006.6
20260506211158 55 143 1.0 2.0 0.01 0.17 0.00 85 1006.6
20260506210701 55 206 1.0 3.0 0.02 0.17 0.00 85 1006.2
20260506210204 55 204 1.0 4.0 0.02 0.17 0.00 85 1006.2
20260506205658 55 180 1.0 4.0 0.03 0.17 0.00 85 1006.2
20260506205201 55 209 1.0 3.0 0.03 0.17 0.00 86 1006.2
20260506204701 55 190 1.0 4.0 0.03 0.17 0.00 86 1006.2
20260506204158 55 184 2.0 4.0 0.03 0.17 0.00 85 1006.2
20260506203658 55 234 0.0 3.0 0.03 0.17 0.00 86 1006.2
20260506203158 55 235 1.0 3.0 0.03 0.17 0.00 86 1006.2
20260506202701 55 353 0.0 4.0 0.02 0.16 0.00 86 1006.2
20260506202201 55 186 2.0 4.0 0.02 0.16 0.00 85 1006.2
20260506201658 55 199 0.0 5.0 0.01 0.15 0.00 85 1006.2
20260506201201 55 194 1.0 5.0 0.01 0.15 0.00 85 1006.2
20260506200704 55 199 1.0 3.0 0.01 0.14 0.00 85 1006.2
20260506200201 55 278 1.0 2.0 0.00 0.14 0.00 84 1006.2
20260506195658 55 264 1.0 3.0 0.00 0.14 0.00 84 1006.2
20260506195201 55 186 1.0 5.0 0.00 0.13 0.00 83 1005.8
20260506194658 56 151 1.0 5.0 0.00 0.13 0.00 83 1005.8
20260506194201 56 173 2.0 3.0 0.00 0.13 0.00 82 1005.8
20260506193701 56 250 1.0 3.0 0.00 0.13 0.00 83 1005.8
20260506193158 56 279 0.0 3.0 0.00 0.13 0.00 83 1005.5
20260506192701 56 308 0.0 3.0 0.00 0.13 0.00 84 1005.5
20260506192158 56 218 1.0 5.0 0.00 0.13 0.00 84 1005.5
20260506191658 56 194 3.0 6.0 0.00 0.13 0.00 85 1005.5
20260506191201 56 181 2.0 4.0 0.00 0.13 0.00 85 1005.5
20260506190704 56 152 1.0 4.0 0.00 0.13 0.00 85 1005.1
20260506190204 57 184 2.0 4.0 0.00 0.13 0.00 85 1005.1
20260506185701 57 179 3.0 4.0 0.00 0.13 0.00 85 1005.1
20260506185158 57 207 1.0 2.0 0.00 0.13 0.00 86 1005.1
20260506184658 57 146 1.0 2.0 0.00 0.13 0.00 86 1004.8
20260506184201 57 288 0.0 3.0 0.00 0.13 0.00 85 1004.8
20260506183704 57 297 1.0 3.0 0.00 0.13 0.00 85 1004.5
20260506183204 57 309 1.0 2.0 0.00 0.13 0.00 84 1004.5
20260506182658 57 292 1.0 2.0 0.00 0.13 0.00 84 1004.5
20260506182204 57 210 1.0 2.0 0.00 0.13 0.00 84 1004.5
20260506181707 57 189 1.0 2.0 0.00 0.13 0.00 84 1004.5
20260506181158 57 272 1.0 2.0 0.00 0.13 0.00 84 1004.5
20260506180701 58 252 0.0 1.0 0.01 0.13 0.00 85 1004.5